Weather History for Sheringham Point, BC

Change the Weather History Date:

Tuesday, June 25, 2013

  Actual Average Record
Temperature  
Mean Temperature 56 °F -  
Max Temperature 61 °F - - ()
Min Temperature 50 °F - - ()
Degree Days  
Heating Degree Days 10    
Growing Degree Days 6 (Base 50)    
Moisture  
Dew Point 52 °F    
Average Humidity 90    
Maximum Humidity 97    
Minimum Humidity 72    
Precipitation  
Precipitation 0.04 in - - ()
Sea Level Pressure  
Sea Level Pressure 29.70 in    
Wind  
Wind Speed 5 mph ()    
Max Wind Speed 20 mph    
Max Gust Speed -    
T = Trace of Precipitation, MM = Missing Value Source: Averaged Metar Reports

Daily Weather History Graph

Daily Weather History Graph

Search for Another Location

Airport:

Trip Planner

Search our weather history database for the weather conditions in past years. The results will help you decide how hot, cold, wet, or windy it might be!

Date:

Astronomy

Jun. 25, 2013 Rise Set
Actual Time 5:15 AM PDT 9:21 PM PDT
Civil Twilight 4:33 AM PDT 10:02 PM PDT
Nautical Twilight 3:35 AM PDT 11:01 PM PDT
Astronomical Twilight 1:44 AM PDT 12:50 AM PDT
Moon 10:52 PM PDT (6/25) 8:16 AM PDT (6/25)
Length of Visible Light 17h 29m
Length of Day
16h 05m
Waning Gibbous, 92% of the Moon is Illuminated
Jun 25
Waning Gibbous
Jun 29
Last Quarter
Jul 8
New
Jul 15
First Quarter
Jul 22
Full

Hourly Weather History & Observations

Time (PDT) Temp. Dew Point Humidity Pressure Visibility Wind Dir Wind Speed Gust Speed Precip Events Conditions
12:00 AM 54.5 °F 52.3 °F 92% 29.66 in - SW 1.2 mph - N/A   Unknown
1:00 AM 53.1 °F 51.4 °F 94% 29.65 in - East 5.8 mph - N/A   Unknown
2:00 AM 53.1 °F 51.4 °F 94% 29.65 in - East 4.6 mph - N/A   Unknown
3:00 AM 54.7 °F 53.1 °F 94% 29.63 in - East 4.6 mph - N/A   Unknown
4:00 AM 53.6 °F 51.6 °F 93% 29.63 in - ESE 4.6 mph - N/A   Unknown
5:00 AM 53 °F 52 °F 93% 29.63 in - East 5.8 mph - -  
5:00 AM 52.9 °F 51.6 °F 95% 29.63 in - East 5.8 mph - 0.03 in   Unknown
6:00 AM 51.8 °F 50.7 °F 96% 29.63 in - West 2.3 mph - N/A   Unknown
7:00 AM 52.5 °F 51.6 °F 97% 29.65 in - NW 4.6 mph - N/A   Unknown
8:00 AM 52.7 °F 51.4 °F 95% 29.66 in - WNW 4.6 mph - N/A   Unknown
9:00 AM 54.1 °F 52.7 °F 95% 29.68 in - WNW 5.8 mph - N/A   Unknown
10:00 AM 54.9 °F 53.2 °F 94% 29.69 in - WNW 5.8 mph - N/A   Unknown
11:00 AM 59 °F 53 °F 76% 29.70 in - NW 8.1 mph - -  
11:00 AM 59.0 °F 53.4 °F 82% 29.70 in - NW 8.1 mph - N/A   Unknown
12:00 PM 57.9 °F 49.1 °F 72% 29.69 in - WNW 19.6 mph - N/A   Unknown
1:00 PM 54.0 °F 49.5 °F 85% 29.72 in - West 4.6 mph - N/A   Unknown
2:00 PM 56.1 °F 54.0 °F 92% 29.74 in - ENE 1.2 mph - 0.02 in   Unknown
3:00 PM 55.9 °F 52.3 °F 88% 29.75 in - ESE 3.5 mph - N/A   Unknown
4:00 PM 57.9 °F 53.1 °F 84% 29.74 in - WNW 9.2 mph - N/A   Unknown
5:00 PM 54 °F 51 °F 85% 29.73 in - West 6.9 mph - -  
5:00 PM 53.6 °F 50.7 °F 90% 29.73 in - West 6.9 mph - N/A   Unknown
6:00 PM 54.1 °F 52.0 °F 92% 29.73 in - West 8.1 mph - N/A   Unknown
7:00 PM 56.3 °F 53.6 °F 91% 29.74 in - WNW 3.5 mph - N/A   Unknown
8:00 PM 57.7 °F 55.6 °F 92% 29.74 in - WNW 4.6 mph - N/A   Unknown
9:00 PM 54.7 °F 52.7 °F 93% 29.76 in - NW 1.2 mph - N/A   Unknown
10:00 PM 52.7 °F 51.6 °F 96% 29.80 in - WNW 9.2 mph - N/A   Unknown
11:00 PM 57 °F 54 °F 88% 29.79 in - NW 4.6 mph - -  
11:00 PM 57.4 °F 54.3 °F 90% 29.79 in - NW 4.6 mph - 0.05 in   Unknown